Location: Unspecified
(0.0000°N, 0.0000°E)
Time: 14:20:08
(UTC+00:00)

A-11 Canister half - Pass Details

Date: 25 May 2026
Orbit: 1515 x 1685 km, 47.2° (Epoch: 8 June)

Event Time Altitude Azimuth Distance (km) Brightness Sun altitude
Rises 17:22:40 0° 251° (WSW) 4,910 12.5 8.0°
Reaches altitude 10° 17:26:50 10° 265° (W) 3,900 12.5 7.0°
Maximum altitude 17:34:00 22° 312° (NW) 2,988 11.9 5.4°
Drops below altitude 10° 17:41:05 10° 359° (N) 3,799 11.4 3.7°
Sets 17:45:07 0° 14° (NNE) 4,752 11.7 2.8°
